| time (UTC) | temp F | wind direction | speed MPH | gust MPH | rain 1hr in | rain 24hr in | rain mn in | humidity % | barometer mb |
| 20260504082005 | 69 | 214 | 1.0 | 5.0 | 0.00 | 0.00 | 0.00 | 24 | 1002.4 |
| 20260504081505 | 69 | 187 | 2.0 | 5.0 | 0.00 | 0.00 | 0.00 | 24 | 1002.5 |
| 20260504081002 | 69 | 208 | 1.0 | 4.0 | 0.00 | 0.00 | 0.00 | 24 | 1002.5 |
| 20260504080501 | 70 | 217 | 1.0 | 4.0 | 0.00 | 0.00 | 0.00 | 24 | 1002.5 |
| 20260504050546 | 73 | 277 | 4.0 | 11.0 | 0.00 | 0.00 | 0.00 | 17 | 1001.8 |
| 20260504045546 | 73 | 263 | 4.0 | 12.0 | 0.00 | 0.00 | 0.00 | 17 | 1001.8 |
| 20260504045046 | 73 | 219 | 3.0 | 12.0 | 0.00 | 0.00 | 0.00 | 17 | 1001.8 |
| 20260504044552 | 73 | 238 | 4.0 | 12.0 | 0.00 | 0.00 | 0.00 | 17 | 1001.8 |
| 20260504044045 | 73 | 246 | 3.0 | 11.0 | 0.00 | 0.00 | 0.00 | 17 | 1001.8 |
| 20260504043545 | 73 | 223 | 4.0 | 11.0 | 0.00 | 0.00 | 0.00 | 17 | 1001.8 |
| 20260504043045 | 74 | 244 | 3.0 | 11.0 | 0.00 | 0.00 | 0.00 | 17 | 1001.9 |
| 20260504042544 | 74 | 237 | 3.0 | 10.0 | 0.00 | 0.00 | 0.00 | 18 | 1001.8 |
| 20260504042045 | 74 | 222 | 3.0 | 11.0 | 0.00 | 0.00 | 0.00 | 18 | 1001.7 |
| 20260504041544 | 74 | 235 | 4.0 | 11.0 | 0.00 | 0.00 | 0.00 | 18 | 1001.7 |
| 20260504041044 | 74 | 229 | 3.0 | 9.0 | 0.00 | 0.00 | 0.00 | 18 | 1001.7 |
| 20260504040544 | 74 | 248 | 2.0 | 11.0 | 0.00 | 0.00 | 0.00 | 17 | 1001.6 |
| 20260504040100 | 74 | 265 | 3.0 | 11.0 | 0.00 | 0.00 | 0.00 | 17 | 1001.4 |
| 20260504035547 | 74 | 244 | 3.0 | 10.0 | 0.00 | 0.00 | 0.00 | 17 | 1001.5 |
| 20260504035044 | 74 | 221 | 4.0 | 10.0 | 0.00 | 0.00 | 0.00 | 17 | 1001.5 |
| 20260504034556 | 74 | 253 | 5.0 | 16.0 | 0.00 | 0.00 | 0.00 | 17 | 1001.4 |
| 20260504034144 | 75 | 215 | 3.0 | 16.0 | 0.00 | 0.00 | 0.00 | 17 | 1001.3 |
| 20260504033542 | 75 | 251 | 3.0 | 12.0 | 0.00 | 0.00 | 0.00 | 17 | 1001.2 |
| 20260504033107 | 75 | 259 | 6.0 | 12.0 | 0.00 | 0.00 | 0.00 | 17 | 1001.1 |
| 20260504032543 | 75 | 238 | 4.0 | 11.0 | 0.00 | 0.00 | 0.00 | 18 | 1000.9 |
| 20260504032041 | 75 | 252 | 5.0 | 11.0 | 0.00 | 0.00 | 0.00 | 18 | 1000.8 |
| 20260504031542 | 75 | 254 | 4.0 | 11.0 | 0.00 | 0.00 | 0.00 | 18 | 1000.8 |
| 20260504031041 | 75 | 238 | 5.0 | 13.0 | 0.00 | 0.00 | 0.00 | 18 | 1000.8 |
| 20260504030541 | 76 | 250 | 3.0 | 13.0 | 0.00 | 0.00 | 0.00 | 18 | 1000.7 |
| 20260504030046 | 76 | 244 | 4.0 | 12.0 | 0.00 | 0.00 | 0.00 | 18 | 1000.7 |
| 20260504025541 | 76 | 250 | 3.0 | 11.0 | 0.00 | 0.00 | 0.00 | 18 | 1000.7 |
| 20260504025141 | 77 | 239 | 2.0 | 11.0 | 0.00 | 0.00 | 0.00 | 18 | 1000.7 |
| 20260504024544 | 77 | 227 | 3.0 | 12.0 | 0.00 | 0.00 | 0.00 | 18 | 1000.7 |
| 20260504024040 | 77 | 233 | 4.0 | 11.0 | 0.00 | 0.00 | 0.00 | 17 | 1000.7 |
| 20260504023540 | 77 | 235 | 4.0 | 9.0 | 0.00 | 0.00 | 0.00 | 17 | 1000.5 |
| 20260504023056 | 77 | 193 | 3.0 | 9.0 | 0.00 | 0.00 | 0.00 | 16 | 1000.4 |
| 20260504022540 | 78 | 198 | 2.0 | 7.0 | 0.00 | 0.00 | 0.00 | 16 | 1000.3 |
| 20260504022038 | 78 | 194 | 2.0 | 7.0 | 0.00 | 0.00 | 0.00 | 16 | 1000.3 |
| 20260504021538 | 78 | 161 | 5.0 | 10.0 | 0.00 | 0.00 | 0.00 | 15 | 1000.3 |
| 20260504021038 | 78 | 173 | 3.0 | 13.0 | 0.00 | 0.00 | 0.00 | 15 | 1000.4 |
| 20260504020539 | 78 | 180 | 7.0 | 13.0 | 0.00 | 0.00 | 0.00 | 15 | 1000.5 |
| 20260504020039 | 78 | 188 | 6.0 | 16.0 | 0.00 | 0.00 | 0.00 | 15 | 1000.6 |
| 20260504015538 | 79 | 195 | 6.0 | 16.0 | 0.00 | 0.00 | 0.00 | 15 | 1000.6 |
| 20260504015039 | 79 | 181 | 6.0 | 15.0 | 0.00 | 0.00 | 0.00 | 14 | 1000.4 |
| 20260504014546 | 79 | 190 | 7.0 | 14.0 | 0.00 | 0.00 | 0.00 | 14 | 1000.3 |
| 20260504014037 | 79 | 189 | 5.0 | 15.0 | 0.00 | 0.00 | 0.00 | 15 | 1000.3 |
| 20260504013537 | 78 | 174 | 9.0 | 16.0 | 0.00 | 0.00 | 0.00 | 15 | 1000.5 |
| 20260504013045 | 78 | 177 | 2.0 | 8.0 | 0.00 | 0.00 | 0.00 | 16 | 1000.4 |
| 20260504012539 | 78 | 232 | 1.0 | 4.0 | 0.00 | 0.00 | 0.00 | 16 | 1000.3 |
| 20260504012037 | 78 | 254 | 1.0 | 8.0 | 0.00 | 0.00 | 0.00 | 16 | 1000.3 |
| 20260504011536 | 78 | 274 | 1.0 | 10.0 | 0.00 | 0.00 | 0.00 | 18 | 1000.5 |
| 20260504011035 | 79 | 270 | 3.0 | 12.0 | 0.00 | 0.00 | 0.00 | 20 | 1000.6 |
| 20260504010535 | 79 | 270 | 8.0 | 15.0 | 0.00 | 0.00 | 0.00 | 15 | 1001.0 |
| 20260504010038 | 80 | 241 | 6.0 | 16.0 | 0.00 | 0.00 | 0.00 | 13 | 1000.8 |
| 20260504005535 | 81 | 185 | 7.0 | 18.0 | 0.00 | 0.00 | 0.00 | 14 | 1000.7 |
| 20260504005033 | 81 | 213 | 7.0 | 18.0 | 0.00 | 0.00 | 0.00 | 13 | 1000.5 |
| 20260504004536 | 81 | 209 | 6.0 | 18.0 | 0.00 | 0.00 | 0.00 | 13 | 1000.6 |
| 20260504004033 | 80 | 184 | 9.0 | 17.0 | 0.00 | 0.00 | 0.00 | 13 | 1000.5 |
| 20260504003532 | 80 | 210 | 9.0 | 17.0 | 0.00 | 0.00 | 0.00 | 13 | 1000.6 |
| 20260504003035 | 80 | 201 | 6.0 | 14.0 | 0.00 | 0.00 | 0.00 | 13 | 1000.6 |
| 20260504002531 | 81 | 193 | 5.0 | 16.0 | 0.00 | 0.00 | 0.00 | 13 | 1000.6 |
| 20260504002032 | 81 | 172 | 4.0 | 14.0 | 0.00 | 0.00 | 0.00 | 13 | 1000.6 |
| 20260504001531 | 81 | 177 | 7.0 | 14.0 | 0.00 | 0.00 | 0.00 | 13 | 1000.6 |
| 20260504001031 | 81 | 175 | 4.0 | 9.0 | 0.00 | 0.00 | 0.00 | 14 | 1000.5 |
| 20260504000529 | 80 | 176 | 1.0 | 8.0 | 0.00 | 0.00 | 0.00 | 14 | 1000.6 |
| 20260504000029 | 80 | 213 | 3.0 | 8.0 | 0.00 | 0.00 | 0.00 | 14 | 1000.8 |
| 20260503235528 | 79 | 199 | 2.0 | 14.0 | 0.00 | 0.00 | 0.00 | 14 | 1000.9 |
| 20260503235128 | 79 | 179 | 3.0 | 16.0 | 0.00 | 0.00 | 0.00 | 14 | 1000.9 |
| 20260503234537 | 79 | 183 | 6.0 | 16.0 | 0.00 | 0.00 | 0.00 | 15 | 1001.2 |
| 20260503234025 | 78 | 259 | 3.0 | 11.0 | 0.00 | 0.00 | 0.00 | 16 | 1001.1 |
| 20260503233529 | 78 | 273 | 4.0 | 15.0 | 0.00 | 0.00 | 0.00 | 16 | 1001.1 |
| 20260503233026 | 79 | 289 | 4.0 | 15.0 | 0.00 | 0.00 | 0.00 | 16 | 1001.1 |
| 20260503232526 | 79 | 274 | 6.0 | 20.0 | 0.00 | 0.00 | 0.00 | 15 | 1001.1 |
| 20260503232025 | 80 | 199 | 8.0 | 20.0 | 0.00 | 0.00 | 0.00 | 14 | 1001.2 |
| 20260503231525 | 81 | 171 | 8.0 | 15.0 | 0.00 | 0.00 | 0.00 | 14 | 1001.1 |
| 20260503231025 | 81 | 205 | 5.0 | 15.0 | 0.00 | 0.00 | 0.00 | 13 | 1001.1 |
| 20260503230525 | 81 | 177 | 5.0 | 11.0 | 0.00 | 0.00 | 0.00 | 13 | 1001.2 |
| 20260503230024 | 81 | 225 | 1.0 | 9.0 | 0.00 | 0.00 | 0.00 | 13 | 1001.2 |
| 20260503225525 | 81 | 185 | 3.0 | 10.0 | 0.00 | 0.00 | 0.00 | 13 | 1001.3 |
| 20260503225023 | 81 | 236 | 3.0 | 14.0 | 0.00 | 0.00 | 0.00 | 13 | 1001.5 |
| 20260503224522 | 81 | 259 | 5.0 | 16.0 | 0.00 | 0.00 | 0.00 | 13 | 1001.3 |
| 20260503224022 | 81 | 207 | 4.0 | 17.0 | 0.00 | 0.00 | 0.00 | 13 | 1001.5 |
| 20260503223521 | 82 | 177 | 3.0 | 11.0 | 0.00 | 0.00 | 0.00 | 14 | 1001.6 |
| 20260503223023 | 82 | 195 | 4.0 | 11.0 | 0.00 | 0.00 | 0.00 | 14 | 1001.7 |
| 20260503222519 | 81 | 221 | 3.0 | 12.0 | 0.00 | 0.00 | 0.00 | 15 | 1001.8 |
| 20260503222019 | 81 | 231 | 4.0 | 12.0 | 0.00 | 0.00 | 0.00 | 15 | 1002.0 |
| 20260503221518 | 81 | 224 | 4.0 | 7.0 | 0.00 | 0.00 | 0.00 | 15 | 1002.1 |
| 20260503221017 | 80 | 220 | 3.0 | 10.0 | 0.00 | 0.00 | 0.00 | 16 | 1002.3 |
| 20260503220521 | 81 | 267 | 4.0 | 11.0 | 0.00 | 0.00 | 0.00 | 15 | 1002.1 |
| 20260503220016 | 81 | 238 | 6.0 | 14.0 | 0.00 | 0.00 | 0.00 | 14 | 1002.3 |
| 20260503215515 | 82 | 195 | 6.0 | 14.0 | 0.00 | 0.00 | 0.00 | 14 | 1002.3 |
| 20260503215014 | 81 | 194 | 4.0 | 15.0 | 0.00 | 0.00 | 0.00 | 14 | 1002.3 |
| 20260503214515 | 81 | 176 | 8.0 | 15.0 | 0.00 | 0.00 | 0.00 | 14 | 1002.5 |
| 20260503214016 | 81 | 173 | 3.0 | 8.0 | 0.00 | 0.00 | 0.00 | 14 | 1002.6 |
| 20260503213513 | 81 | 163 | 2.0 | 9.0 | 0.00 | 0.00 | 0.00 | 14 | 1002.6 |
| 20260503213012 | 81 | 136 | 4.0 | 16.0 | 0.00 | 0.00 | 0.00 | 14 | 1002.7 |
| 20260503212512 | 81 | 217 | 5.0 | 16.0 | 0.00 | 0.00 | 0.00 | 14 | 1002.9 |
| 20260503212011 | 81 | 93 | 4.0 | 11.0 | 0.00 | 0.00 | 0.00 | 13 | 1003.0 |
| 20260503211509 | 82 | 105 | 3.0 | 11.0 | 0.00 | 0.00 | 0.00 | 13 | 1003.0 |
| 20260503211010 | 81 | 73 | 3.0 | 11.0 | 0.00 | 0.00 | 0.00 | 13 | 1003.0 |
| 20260503210514 | 81 | 100 | 2.0 | 13.0 | 0.00 | 0.00 | 0.00 | 13 | 1003.2 |
| 20260503210008 | 82 | 136 | 6.0 | 13.0 | 0.00 | 0.00 | 0.00 | 13 | 1003.3 |
| 20260503205507 | 82 | 94 | 3.0 | 17.0 | 0.00 | 0.00 | 0.00 | 12 | 1003.3 |
| 20260503205005 | 82 | 13 | 6.0 | 17.0 | 0.00 | 0.00 | 0.00 | 12 | 1003.5 |
| 20260503204611 | 82 | 98 | 4.0 | 9.0 | 0.00 | 0.00 | 0.00 | 13 | 1003.5 |
| 20260503204004 | 82 | 63 | 4.0 | 9.0 | 0.00 | 0.00 | 0.00 | 12 | 1003.7 |
| 20260503203505 | 82 | 96 | 3.0 | 10.0 | 0.00 | 0.00 | 0.00 | 12 | 1003.8 |
| 20260503203001 | 82 | 114 | 4.0 | 10.0 | 0.00 | 0.00 | 0.00 | 12 | 1004.0 |
| 20260503202501 | 82 | 186 | 5.0 | 10.0 | 0.00 | 0.00 | 0.00 | 12 | 1004.2 |
| 20260503202100 | 82 | 182 | 5.0 | 10.0 | 0.00 | 0.00 | 0.00 | 12 | 1004.2 |
| 20260503201605 | 82 | 165 | 3.0 | 9.0 | 0.00 | 0.00 | 0.00 | 12 | 1004.4 |
| 20260503201057 | 82 | 173 | 5.0 | 9.0 | 0.00 | 0.00 | 0.00 | 12 | 1004.5 |
| 20260503200556 | 82 | 182 | 4.0 | 8.0 | 0.00 | 0.00 | 0.00 | 12 | 1004.7 |
| 20260503200100 | 81 | 177 | 3.0 | 12.0 | 0.00 | 0.00 | 0.00 | 12 | 1004.8 |
| 20260503195553 | 81 | 136 | 4.0 | 12.0 | 0.00 | 0.00 | 0.00 | 12 | 1004.9 |
| 20260503195052 | 81 | 197 | 1.0 | 3.0 | 0.00 | 0.00 | 0.00 | 12 | 1005.0 |
| 20260503194551 | 80 | 100 | 1.0 | 10.0 | 0.00 | 0.00 | 0.00 | 12 | 1005.1 |
| 20260503194050 | 80 | 95 | 5.0 | 9.0 | 0.00 | 0.00 | 0.00 | 12 | 1005.2 |
| 20260503193550 | 80 | 161 | 3.0 | 9.0 | 0.00 | 0.00 | 0.00 | 12 | 1005.4 |
| 20260503193054 | 81 | 92 | 4.0 | 11.0 | 0.00 | 0.00 | 0.00 | 12 | 1005.5 |
| 20260503192547 | 80 | 59 | 4.0 | 11.0 | 0.00 | 0.00 | 0.00 | 12 | 1005.6 |
| 20260503192047 | 80 | 96 | 5.0 | 10.0 | 0.00 | 0.00 | 0.00 | 12 | 1005.7 |
| 20260503191546 | 79 | 101 | 2.0 | 9.0 | 0.00 | 0.00 | 0.00 | 11 | 1005.8 |
| 20260503191048 | 80 | 55 | 3.0 | 9.0 | 0.00 | 0.00 | 0.00 | 11 | 1006.0 |
| 20260503190546 | 80 | 211 | 0.0 | 6.0 | 0.00 | 0.00 | 0.00 | 11 | 1006.1 |
| 20260503190043 | 80 | 198 | 4.0 | 9.0 | 0.00 | 0.00 | 0.00 | 12 | 1006.2 |
| 20260503185642 | 80 | 138 | 3.0 | 9.0 | 0.00 | 0.00 | 0.00 | 11 | 1006.3 |
| 20260503185041 | 80 | 61 | 3.0 | 9.0 | 0.00 | 0.00 | 0.00 | 11 | 1006.4 |
| 20260503184639 | 79 | 29 | 0.0 | 8.0 | 0.00 | 0.00 | 0.00 | 11 | 1006.5 |
| 20260503184041 | 79 | 47 | 3.0 | 8.0 | 0.00 | 0.00 | 0.00 | 11 | 1006.7 |
| 20260503183537 | 78 | 117 | 3.0 | 8.0 | 0.00 | 0.00 | 0.00 | 11 | 1006.7 |
| 20260503183054 | 78 | 49 | 3.0 | 8.0 | 0.00 | 0.00 | 0.00 | 11 | 1006.8 |
| 20260503182536 | 78 | 124 | 2.0 | 7.0 | 0.00 | 0.00 | 0.00 | 10 | 1006.9 |
| 20260503182036 | 78 | 104 | 2.0 | 8.0 | 0.00 | 0.00 | 0.00 | 11 | 1006.9 |
| 20260503181535 | 78 | 24 | 2.0 | 10.0 | 0.00 | 0.00 | 0.00 | 10 | 1007.0 |
| 20260503181034 | 78 | 74 | 3.0 | 10.0 | 0.00 | 0.00 | 0.00 | 10 | 1007.1 |
| 20260503180534 | 78 | 57 | 2.0 | 7.0 | 0.00 | 0.00 | 0.00 | 11 | 1007.1 |
| 20260503180040 | 77 | 132 | 2.0 | 8.0 | 0.00 | 0.00 | 0.00 | 10 | 1007.1 |
| 20260503175532 | 77 | 94 | 2.0 | 8.0 | 0.00 | 0.00 | 0.00 | 10 | 1007.1 |
| 20260503175034 | 77 | 96 | 4.0 | 8.0 | 0.00 | 0.00 | 0.00 | 10 | 1007.2 |
| 20260503174534 | 77 | 59 | 3.0 | 7.0 | 0.00 | 0.00 | 0.00 | 11 | 1007.2 |
| 20260503174032 | 77 | 31 | 3.0 | 8.0 | 0.00 | 0.00 | 0.00 | 11 | 1007.4 |
| 20260503173531 | 77 | 95 | 1.0 | 8.0 | 0.00 | 0.00 | 0.00 | 11 | 1007.5 |
| 20260503173051 | 77 | 88 | 2.0 | 6.0 | 0.00 | 0.00 | 0.00 | 11 | 1007.5 |
| 20260503172531 | 76 | 45 | 1.0 | 4.0 | 0.00 | 0.00 | 0.00 | 11 | 1007.5 |
| 20260503172031 | 76 | 44 | 1.0 | 4.0 | 0.00 | 0.00 | 0.00 | 10 | 1007.5 |
| 20260503171529 | 77 | 50 | 1.0 | 5.0 | 0.00 | 0.00 | 0.00 | 10 | 1007.5 |
| 20260503171029 | 76 | 54 | 1.0 | 6.0 | 0.00 | 0.00 | 0.00 | 10 | 1007.5 |
| 20260503170528 | 76 | 63 | 2.0 | 6.0 | 0.00 | 0.00 | 0.00 | 11 | 1007.4 |
| 20260503150518 | 73 | 126 | 1.0 | 3.0 | 0.00 | 0.00 | 0.00 | 9 | 1008.0 |
| 20260503131004 | 64 | 126 | 0.0 | 1.0 | 0.00 | 0.00 | 0.00 | 13 | 1007.6 |
| 20260503130504 | 64 | 126 | 0.0 | 1.0 | 0.00 | 0.00 | 0.00 | 13 | 1007.6 |
| 20260503120121 | 66 | 126 | 0.0 | 2.0 | 0.00 | 0.00 | 0.00 | 11 | 1007.1 |
| 20260503110551 | 67 | 126 | 0.0 | 2.0 | 0.00 | 0.00 | 0.00 | 11 | 1007.3 |